Theta_e
305 305 305 306 305 304 304 304 304 303 304 305 303 306 307 312 303 299 309 314 313 313 314 319 321 326 328 327 331 331 332 333 333 333 331 331 332 335 336 339 342 344 345 348 349 350 351 352 353 354 354 355 357 358 357 358 356 357 359 359 358 357 355 353 349 344 345 346 346 345 344 344 341 341 342 341 340 340 339 338 336 337 338 338 339 340 342
303 304 304 305 304 304 304 304 304 305 304 304 305 305 307 309 308 309 313 316 312 313 315 318 322 327 326 331 333 330 329 328 332 331 332 331 332 333 335 338 340 343 345 347 349 351 352 352 353 353 354 356 356 356 355 356 358 358 359 359 359 357 355 353 350 347 345 344 344 344 344 341 340 340 337 338 338 337 337 337 336 336 335 337 338 339 339
301 303 304 304 304 303 302 304 305 305 305 305 305 306 307 309 308 308 310 316 315 317 320 321 328 335 328 326 324 325 330 332 331 331 331 332 332 333 336 339 339 342 344 346 348 349 350 352 353 353 354 356 356 354 355 355 357 358 358 359 358 357 355 354 352 348 345 343 343 343 343 341 338 338 338 337 336 335 335 336 335 336 336 337 337 337 336
300 303 303 303 303 303 302 302 304 304 303 302 304 305 308 307 308 312 310 309 310 317 322 321 322 323 324 324 328 329 331 330 333 332 332 333 335 335 336 338 338 340 341 344 345 347 348 350 352 353 355 355 355 354 355 355 356 357 357 357 356 358 357 355 350 347 346 345 344 344 343 340 338 336 336 335 334 334 334 335 336 337 336 336 337 336 336
300 304 303 302 302 301 298 300 303 305 305 306 306 307 309 308 309 307 306 306 314 319 323 319 320 320 323 325 327 330 332 334 333 334 335 335 336 336 340 339 339 338 338 341 344 345 347 348 350 352 355 353 354 355 356 357 358 356 356 357 358 358 358 356 350 347 346 345 344 342 337 336 335 336 335 334 333 334 335 339 339 337 337 336 335 337 338
300 304 302 302 299 292 294 307 308 307 305 305 304 304 306 310 311 311 313 314 321 322 317 317 319 321 324 328 331 331 332 332 332 333 336 337 338 338 338 338 338 340 341 341 343 344 348 349 349 352 354 352 354 356 357 359 357 357 357 357 358 358 358 355 350 347 346 344 340 336 335 336 338 337 336 335 336 337 339 340 339 339 339 338 337 336 335
300 302 301 297 292 294 309 315 314 310 308 308 307 311 316 314 316 315 313 315 318 321 320 322 326 327 326 325 327 326 327 330 330 332 333 335 336 337 338 338 337 342 343 345 344 344 344 344 348 350 351 353 356 356 358 357 358 358 358 357 357 357 356 354 351 347 345 344 341 340 339 339 339 338 337 338 339 340 340 339 338 338 334 334 335 334 334
303 300 299 291 294 307 311 312 314 313 310 310 312 310 314 316 316 318 316 317 321 322 320 320 321 325 326 326 329 329 329 330 331 329 330 333 333 334 336 340 342 344 341 342 341 344 344 347 349 349 351 352 352 352 355 356 356 356 357 356 355 355 354 353 350 347 345 344 343 341 340 339 338 338 339 338 338 337 338 338 340 339 337 334 333 333 335
298 301 299 299 308 305 307 308 311 311 309 307 306 302 310 317 317 318 318 320 321 321 320 321 320 326 326 326 326 328 326 329 329 330 331 332 333 335 340 339 340 344 344 344 343 349 348 347 347 347 349 350 350 351 352 353 355 354 354 354 354 354 353 352 350 347 345 344 342 341 340 339 338 338 338 338 336 334 332 331 330 331 332 333 335 336 337
304 300 298 298 298 296 305 311 315 316 314 315 314 317 311 315 318 317 317 318 321 321 321 320 321 326 321 318 322 327 327 327 329 330 333 335 338 339 339 343 344 347 347 347 349 345 347 347 348 349 350 349 352 352 352 353 353 353 353 353 354 354 353 353 351 348 347 345 343 341 341 340 339 338 337 337 335 333 329 326 325 327 330 334 338 338 337
303 301 296 297 296 300 311 312 313 315 316 316 317 311 306 315 317 318 317 317 319 321 320 322 323 321 315 318 324 326 328 329 329 332 334 335 338 341 341 341 341 342 346 346 344 347 347 344 347 350 350 350 351 352 352 350 351 351 351 353 353 353 353 353 352 349 348 346 344 342 341 339 337 335 334 332 329 327 326 326 328 333 334 334 336 337 337
304 301 298 296 304 304 310 312 314 315 317 315 313 300 302 317 317 318 319 317 318 320 323 322 324 322 318 320 324 327 332 336 339 341 341 340 339 339 341 343 346 347 347 347 345 344 344 345 347 351 351 352 352 351 349 348 348 349 351 352 353 353 353 352 351 350 348 346 344 342 339 334 334 332 329 327 327 328 332 335 338 340 339 337 336 337 336
303 301 301 303 306 313 313 313 315 316 316 314 303 297 310 318 319 320 321 319 321 324 325 326 320 321 325 326 328 332 336 337 338 340 341 341 342 342 342 342 344 345 345 345 344 344 346 347 346 348 349 349 348 348 347 346 346 346 349 350 350 351 350 349 349 348 347 345 343 342 337 333 330 329 330 332 333 333 334 336 338 338 338 339 338 337 335
302 303 299 301 307 311 312 315 315 318 310 303 303 313 317 321 320 322 322 322 324 324 324 323 322 323 325 327 329 332 334 336 338 339 338 338 339 340 342 343 343 343 344 344 344 343 346 347 347 348 349 347 346 346 345 345 346 345 347 348 349 349 348 347 347 346 343 343 342 339 336 332 328 327 330 331 332 334 335 336 335 336 339 340 337 334 332
305 304 302 298 294 311 314 312 315 318 311 313 317 318 319 320 321 321 321 322 322 322 321 322 323 323 323 325 326 328 330 332 335 337 337 337 337 338 339 340 341 342 341 339 339 340 342 344 346 347 347 346 344 344 344 344 343 345 346 347 347 347 347 346 345 343 341 339 338 336 335 333 330 330 330 330 331 334 334 335 335 337 340 337 335 334 333
304 300 298 298 308 310 315 313 311 317 318 320 321 317 314 318 318 318 318 319 321 322 322 321 322 323 324 326 327 328 328 329 333 337 339 339 337 335 336 338 338 339 339 339 339 341 342 344 346 346 347 344 343 343 343 343 343 345 346 346 347 345 344 343 341 340 338 338 337 336 334 332 332 331 331 332 333 336 335 337 338 339 338 336 334 332 330
308 305 308 313 316 314 315 315 316 318 319 320 319 318 316 316 316 320 318 319 321 323 324 325 325 323 325 325 326 326 327 328 329 331 335 338 336 335 336 336 338 338 337 337 338 338 340 341 342 344 346 344 342 342 341 342 343 344 345 345 344 343 341 341 339 338 338 338 336 334 332 331 331 331 332 334 333 335 338 340 340 337 335 334 330 329 327
313 314 316 318 315 314 314 316 317 315 315 317 318 317 316 318 319 320 318 319 321 323 325 323 324 325 327 326 326 327 328 328 331 335 336 337 340 338 338 340 340 340 340 340 340 338 338 339 340 344 346 346 345 344 341 342 343 344 344 343 342 341 341 340 339 338 337 336 336 333 332 333 333 332 332 331 331 334 337 337 336 335 333 329 328 326 325
307 301 312 313 313 312 313 315 316 317 318 317 319 319 319 319 319 318 320 321 321 323 325 325 324 324 326 326 328 331 332 331 332 332 333 334 336 337 337 339 341 341 340 337 336 337 337 337 339 340 343 344 347 342 341 341 342 344 343 341 339 339 338 337 338 337 335 334 333 334 335 333 332 332 331 333 334 337 338 337 337 335 330 327 325 324 327
309 308 314 312 313 313 313 314 315 315 315 316 317 318 318 319 319 319 320 321 321 323 323 325 325 325 327 328 329 328 330 332 334 335 335 336 336 337 337 338 340 341 340 338 339 340 342 340 341 341 340 341 341 340 339 339 341 342 341 339 338 337 336 336 335 335 335 335 335 334 336 336 335 336 338 338 338 338 337 337 335 331 329 328 328 328 328
311 313 312 312 312 313 313 313 315 316 316 315 317 317 317 317 317 318 318 319 319 320 321 324 326 325 326 328 329 328 331 333 334 335 337 338 339 340 338 336 338 339 341 342 342 342 341 339 339 339 338 337 338 338 337 338 340 339 338 337 338 337 336 336 335 335 334 335 336 336 336 337 332 328 331 336 337 337 328 326 331 332 332 331 332 332 332
305 305 307 310 306 307 313 313 315 315 316 316 315 316 317 317 317 318 316 316 318 319 320 321 322 321 322 324 327 326 328 330 333 335 337 338 339 339 338 338 340 339 338 339 339 338 338 337 337 337 337 337 338 338 338 339 339 338 338 337 338 337 337 336 336 335 335 335 335 335 335 332 325 314 302 295 302 322 324 309 302 299 301 329 331 332 330
304 310 312 316 316 312 315 317 317 317 317 319 316 315 314 315 316 318 317 314 315 315 317 320 320 320 320 321 322 320 321 324 329 333 335 336 337 337 337 337 337 338 339 338 337 337 337 335 335 334 336 337 338 338 339 339 338 339 340 338 337 337 336 336 335 336 336 336 334 335 334 330 327 321 316 309 294 293 299 300 297 293 295 298 303 315 328
309 313 312 314 313 308 311 313 314 316 319 317 314 316 316 316 316 315 315 315 312 314 316 315 317 317 317 317 317 317 318 320 323 325 329 333 335 335 335 335 336 337 337 337 337 337 336 335 333 334 334 336 338 337 340 340 340 341 340 338 336 336 335 336 334 335 334 334 333 332 332 331 328 325 323 322 315 296 292 294 294 292 292 295 301 305 308
307 311 311 312 312 312 313 313 315 317 316 315 315 314 314 315 315 317 316 317 315 315 315 315 316 317 316 315 317 317 317 317 319 321 324 327 328 332 332 332 334 336 336 336 337 337 334 333 332 333 334 335 337 337 339 339 340 340 339 338 336 336 337 336 334 334 333 333 332 331 330 329 327 327 326 326 324 319 308 294 292 292 292 292 294 296 298
311 310 311 312 312 312 312 310 310 313 315 317 316 314 314 316 315 315 315 315 315 315 315 314 314 315 317 318 318 318 318 317 317 319 322 325 326 328 330 331 333 336 336 336 335 333 332 331 332 332 333 333 335 335 335 336 337 339 338 338 337 336 334 334 334 333 332 332 330 330 329 328 328 327 328 328 327 325 322 319 316 305 297 293 293 294 293
314 315 310 308 307 308 310 309 307 311 311 312 312 312 313 315 315 313 313 312 312 312 312 313 314 316 316 317 319 319 319 320 321 320 321 323 324 326 329 331 332 334 334 335 334 331 330 330 331 331 331 330 333 334 333 334 335 336 336 335 334 331 331 332 333 332 331 331 329 328 328 327 326 326 327 328 327 325 323 322 322 319 318 315 302 294 304
313 313 313 309 306 307 309 311 312 311 311 311 311 310 311 313 313 312 311 312 312 312 312 313 313 315 315 315 317 318 318 319 319 319 320 321 323 327 331 333 332 333 333 333 333 331 330 330 329 329 329 330 332 333 331 332 333 333 332 331 330 331 330 330 331 331 330 331 330 329 328 328 329 329 328 326 325 324 323 324 323 320 319 317 313 300 295
310 311 312 312 312 312 313 313 312 312 311 312 312 312 313 314 312 312 311 311 312 312 311 312 313 314 313 313 314 314 316 317 318 318 319 322 326 328 330 331 332 331 333 334 333 332 331 330 330 329 329 331 330 331 331 330 331 330 329 327 328 330 332 332 330 331 332 332 331 330 326 328 327 328 326 326 325 325 324 324 324 322 319 315 312 309 306
310 310 310 309 311 311 310 308 309 311 311 312 313 313 313 314 312 311 312 312 312 311 312 313 314 314 314 313 314 313 313 314 316 318 319 320 325 330 330 332 331 331 331 332 333 332 331 330 329 328 329 329 329 331 330 331 330 331 331 330 329 329 331 335 334 333 333 331 329 324 326 326 328 327 325 327 326 324 323 323 323 321 318 315 312 313 312
307 308 308 308 308 308 308 308 309 310 310 311 311 311 312 313 311 311 312 313 313 313 314 314 315 316 315 314 314 315 315 315 316 318 320 322 325 329 330 331 328 328 329 332 334 333 332 331 329 329 331 329 329 330 331 331 332 332 332 331 331 326 324 326 327 331 330 329 327 326 326 326 327 326 325 325 325 323 323 323 322 321 320 317 316 316 315
305 305 305 306 305 305 307 308 309 309 309 310 309 308 309 310 310 310 312 312 312 313 314 315 315 315 315 316 316 316 316 317 318 320 321 322 324 326 329 330 331 330 331 332 333 333 333 332 330 331 333 332 332 332 332 332 333 332 330 330 332 330 325 323 328 327 330 330 328 328 327 326 325 326 326 324 324 322 323 323 322 322 320 318 318 317 316
304 303 303 303 304 304 305 306 306 307 307 308 308 309 310 311 312 312 313 313 312 314 314 315 315 316 316 316 317 316 316 317 318 320 320 322 324 325 327 328 329 330 331 331 331 331 331 331 330 332 332 332 333 334 333 333 332 331 332 332 332 331 327 324 325 328 329 328 327 327 326 326 325 325 325 325 325 324 323 322 323 322 320 320 318 318 317
306 307 307 307 307 307 306 306 307 308 308 309 309 310 310 311 312 313 313 313 313 313 314 314 315 315 315 316 316 316 316 316 317 318 320 323 324 324 325 326 327 329 329 330 330 330 331 332 333 331 331 331 332 332 332 331 330 330 331 331 330 329 326 326 327 329 328 328 327 327 327 327 326 325 326 325 326 326 324 323 322 321 321 320 318 317 309
309 308 309 308 309 308 308 307 308 308 308 308 309 311 312 313 312 312 314 314 313 313 314 314 314 314 315 315 315 316 316 316 317 319 320 321 321 322 324 326 326 327 327 327 327 329 330 332 332 331 330 329 328 328 328 327 328 329 330 330 330 329 330 331 331 330 329 327 327 327 326 326 326 325 326 326 325 324 322 322 321 321 320 319 318 317 313
308 308 309 309 309 309 309 309 309 309 310 310 311 312 312 312 313 313 313 313 314 315 315 315 315 314 314 314 314 315 316 316 318 319 320 320 321 323 324 325 325 325 324 324 327 329 330 330 330 329 329 329 327 328 329 328 329 331 331 330 328 327 328 328 327 326 326 325 324 325 326 325 325 325 325 324 324 323 322 321 320 320 320 319 319 317 315
310 310 310 309 310 310 310 310 311 311 311 311 312 313 312 312 312 314 314 314 314 315 315 315 315 314 313 314 314 315 317 317 318 318 319 321 323 325 325 325 325 324 324 322 325 329 330 330 330 330 329 330 330 330 329 328 329 330 330 329 328 328 326 324 323 322 322 323 324 324 323 323 324 322 322 321 321 321 320 320 321 321 319 319 318 317 315
311 310 310 310 310 310 310 311 311 312 312 312 313 313 313 313 313 314 314 314 314 316 316 315 315 315 316 316 316 317 318 319 319 320 321 323 324 323 322 322 322 324 322 322 327 329 330 331 330 331 331 332 332 330 329 329 329 331 330 328 327 326 324 323 322 322 322 323 323 323 321 320 320 320 320 319 320 319 319 320 320 320 319 318 318 318 317
311 312 311 311 312 311 312 312 313 313 312 312 313 313 314 314 314 314 314 314 315 317 315 315 316 316 316 316 316 317 318 319 320 320 321 322 323 322 319 319 319 321 324 326 326 329 329 330 331 329 328 329 330 329 328 327 327 330 328 325 322 321 321 321 321 321 322 322 321 320 320 319 319 319 319 319 320 319 319 320 318 319 318 318 318 317 318
312 312 312 312 311 312 312 312 311 312 312 312 312 313 313 314 314 314 315 316 317 317 316 317 318 316 315 315 316 316 317 319 320 320 322 323 323 323 321 320 322 324 324 324 325 328 328 326 328 327 327 328 329 328 327 324 324 324 323 323 322 322 322 322 322 321 321 321 319 319 319 319 318 319 318 319 319 318 319 318 318 318 317 318 317 317 317
312 313 313 313 313 312 312 312 311 312 313 313 313 314 315 314 314 315 315 315 317 318 317 318 318 317 316 316 316 317 319 320 321 321 323 324 322 321 319 317 322 325 326 326 326 326 326 325 327 327 326 327 327 326 326 323 323 323 324 323 322 322 322 321 321 320 320 319 319 318 317 317 317 318 317 317 317 317 317 317 317 317 317 317 317 317 316
313 313 314 314 314 314 314 314 314 313 313 314 314 315 315 315 314 314 315 317 318 318 319 319 319 318 318 318 319 319 319 320 321 322 322 321 319 320 318 319 324 325 325 325 325 325 325 323 325 324 325 325 324 322 322 322 322 321 321 321 321 321 320 320 320 319 320 319 319 319 317 318 317 317 317 318 317 317 317 318 317 317 317 317 316 317 316
313 313 313 313 314 314 313 314 314 314 314 314 314 315 316 316 316 317 317 318 318 319 320 320 320 320 320 320 321 320 320 321 321 320 320 320 321 322 321 322 325 326 324 325 325 324 323 323 323 323 322 322 322 321 318 318 317 317 317 317 318 317 317 317 317 317 317 317 316 317 317 316 316 315 314 314 314 314 313 314 315 316 317 317 317 317 316
314 313 314 314 314 314 314 314 314 314 313 313 315 316 317 317 317 317 317 318 319 319 319 320 320 319 320 320 320 319 319 319 319 320 319 319 320 322 324 323 324 326 324 323 322 321 322 322 322 321 320 320 319 317 317 316 315 315 315 314 314 314 314 314 314 314 313 313 313 313 313 311 312 311 310 309 309 309 309 309 309 309 310 312 315 316 316
315 315 314 315 315 315 314 314 313 313 314 315 315 316 316 316 317 318 318 318 318 319 319 319 319 319 318 318 319 319 320 320 319 320 318 317 316 317 322 323 325 325 324 322 322 321 321 322 321 320 321 319 318 316 316 315 314 313 314 313 313 312 311 311 310 311 311 310 310 310 310 310 309 309 308 308 307 307 308 308 308 308 309 309 310 312 315
315 315 315 314 314 314 315 315 316 316 316 316 315 315 316 317 317 319 319 318 318 318 319 319 320 319 319 318 319 321 323 323 321 321 322 321 318 320 322 322 325 325 323 321 322 320 321 319 320 322 322 320 318 315 315 315 314 313 313 312 311 311 311 310 310 310 310 309 308 308 308 308 307 307 307 307 306 306 306 306 306 307 309 309 309 311 314
314 315 316 315 315 315 316 315 316 317 316 314 313 313 316 317 317 319 319 319 319 319 320 321 321 321 320 320 319 319 318 319 320 321 322 322 323 322 322 323 322 323 324 323 322 321 320 319 319 321 321 320 318 315 313 313 312 312 311 311 311 310 310 310 310 309 309 308 308 309 308 308 307 307 307 308 307 306 306 306 306 307 306 308 309 311 312
313 314 315 315 316 316 316 315 316 315 314 314 314 316 316 316 317 318 318 318 319 320 322 321 321 321 321 320 321 321 321 320 315 319 321 320 321 322 322 323 324 323 324 323 321 319 318 319 321 320 321 321 317 314 312 310 311 311 310 311 312 311 310 309 310 310 310 309 309 309 308 308 308 309 307 306 306 306 306 306 305 305 305 306 307 309 311
313 313 314 315 316 316 316 316 316 316 315 315 316 317 316 316 319 318 316 317 318 319 319 319 320 320 320 320 320 320 322 323 320 317 321 322 321 321 321 322 322 323 324 323 322 322 319 315 317 318 319 321 317 313 310 310 310 311 310 310 311 311 311 311 310 311 310 309 309 309 309 308 308 308 307 307 307 306 306 306 306 305 305 305 306 308 310
314 315 316 317 317 318 316 315 314 315 316 317 316 317 317 318 315 313 316 316 317 317 318 316 317 320 319 318 320 320 321 321 322 323 323 323 323 323 322 322 322 323 324 324 323 322 320 317 317 319 320 320 318 313 311 310 311 311 312 311 311 311 311 309 308 308 310 310 309 309 309 308 309 309 308 307 307 306 307 307 306 306 306 306 307 307 308
315 314 314 316 316 318 318 317 316 317 316 316 316 317 318 316 315 315 316 315 317 314 312 314 316 318 317 317 318 320 321 321 321 321 321 323 324 322 321 321 322 322 323 323 322 322 322 321 320 320 320 321 320 316 313 311 310 311 312 311 311 311 311 310 309 310 310 309 310 309 310 309 309 309 309 308 308 307 307 306 306 306 305 305 305 306 306
312 314 315 316 316 317 317 316 317 317 316 316 315 315 316 316 316 315 315 315 314 312 313 313 312 315 316 317 317 316 317 318 318 319 321 320 321 322 322 321 321 321 322 322 322 323 321 320 320 320 320 320 320 319 316 312 311 311 311 312 313 311 311 311 311 310 311 311 310 310 309 309 309 309 309 309 309 309 308 308 307 307 306 306 306 306 307
Wind_Speed
19 21 20 13 11 15 14 16 15 17 17 17 20 17 14 12 13 16 9 8 11 11 13 11 14 14 13 13 15 13 7 2 4 7 10 12 13 12 13 15 14 13 14 14 15 15 15 15 15 15 13 13 12 11 12 13 14 15 13 11 12 11 10 10 11 13 12 13 12 13 11 9 9 9 9 9 10 9 10 9 9 8 9 9 7 7 5
19 21 20 13 15 12 14 16 17 17 19 19 20 19 17 16 14 14 10 14 16 14 13 13 12 13 14 10 2 3 4 10 10 10 10 13 13 15 16 16 16 14 14 12 13 13 13 15 15 15 13 13 13 14 14 13 13 12 10 10 10 10 11 11 11 11 13 11 11 12 14 15 8 5 7 8 9 11 12 11 10 9 9 10 7 7 6
14 17 16 14 15 16 17 15 15 16 16 18 22 21 19 16 18 18 14 13 13 12 14 14 7 1 1 1 7 11 11 9 11 13 13 13 15 15 15 13 13 12 12 12 12 14 15 15 16 15 14 13 12 13 13 13 11 11 11 10 11 11 11 12 11 12 13 13 14 14 10 11 15 10 8 10 12 12 12 13 12 9 9 8 6 6 7
8 11 14 15 14 16 19 20 18 14 15 14 11 9 4 10 9 8 4 6 9 8 8 6 3 3 6 11 11 10 9 11 11 12 13 14 14 15 16 14 13 12 13 14 15 16 16 15 15 13 11 11 10 12 10 11 12 12 12 12 13 12 12 10 11 14 13 13 13 11 8 8 12 19 20 15 12 13 13 13 11 9 9 9 8 6 5
10 6 9 15 14 10 12 16 16 14 13 11 11 13 13 16 15 11 10 11 7 9 4 7 9 9 10 10 10 10 8 7 11 14 14 14 14 17 14 14 15 16 16 16 16 15 14 13 13 12 11 10 9 11 13 13 11 11 12 12 12 11 11 10 12 12 12 12 9 8 13 12 17 17 19 19 17 13 12 7 8 8 7 8 5 4 2
7 8 6 6 5 11 11 9 17 17 16 16 13 12 12 13 13 8 10 10 9 6 5 9 10 11 8 5 4 2 4 7 9 11 10 9 7 6 8 12 14 14 11 10 11 13 11 11 11 10 11 13 14 13 12 10 11 11 10 10 10 10 10 10 11 12 11 11 11 14 16 16 15 15 15 17 14 9 6 6 5 5 5 7 5 4 5
7 3 6 6 13 10 6 1 1 10 18 18 20 8 3 5 7 3 4 7 8 8 6 7 5 2 3 2 2 3 4 7 9 10 10 7 5 6 8 10 13 11 11 10 10 10 12 12 11 13 13 12 10 10 10 10 10 9 9 9 10 10 10 10 11 11 13 13 13 12 12 14 13 14 15 13 7 6 7 9 9 7 7 7 6 7 7
1 2 4 6 7 1 1 2 2 2 2 6 7 3 4 2 6 6 9 11 4 2 4 4 3 4 6 5 3 1 4 5 7 10 11 10 7 7 7 8 6 8 12 13 13 11 11 12 11 12 12 11 10 11 10 10 10 10 10 10 10 9 10 10 12 12 13 13 12 12 13 14 15 15 13 11 8 8 8 8 7 6 7 7 10 9 9
6 3 5 6 4 4 3 3 4 5 6 12 15 12 9 7 4 6 7 6 5 5 5 5 5 5 5 4 3 3 5 5 6 7 7 9 10 10 11 12 10 8 8 11 12 11 10 10 10 10 9 10 10 9 10 9 10 10 10 10 10 10 10 10 11 12 13 13 13 13 14 15 16 15 14 11 12 11 11 10 9 8 9 9 8 8 8
2 5 6 4 6 9 7 3 3 1 3 6 6 4 5 3 3 5 7 8 6 7 5 7 9 7 6 5 2 7 8 5 4 2 2 0 3 5 7 8 10 9 7 7 7 8 8 7 5 6 8 9 9 9 9 9 9 9 9 10 9 9 9 9 10 11 12 12 12 13 12 15 17 14 12 11 12 12 13 12 11 12 12 9 7 6 7
1 2 6 6 8 5 4 2 2 3 4 3 2 6 9 4 2 3 6 8 7 7 8 9 9 8 7 3 2 7 8 5 0 4 6 6 7 7 6 6 8 8 6 7 8 8 8 7 5 6 8 9 9 8 7 8 8 9 9 8 8 8 7 8 8 10 10 11 11 12 14 8 5 7 6 7 7 8 10 10 11 8 6 7 5 4 6
1 2 5 8 4 2 2 7 7 7 5 3 7 11 7 3 3 2 4 6 6 6 8 11 7 5 6 4 2 5 5 4 5 6 9 10 10 10 9 10 10 11 10 11 11 10 9 7 6 7 8 8 7 7 6 6 7 7 6 5 5 5 6 6 7 7 8 9 11 11 7 8 10 12 13 13 13 11 9 8 6 6 5 4 5 6 6
1 2 5 5 4 1 4 9 11 8 3 3 11 10 3 3 3 2 2 7 8 8 8 6 7 5 6 6 5 6 8 11 11 11 13 14 13 12 12 12 11 11 11 11 11 10 7 8 8 8 8 8 7 7 6 6 5 5 4 4 5 5 6 7 7 8 7 10 11 10 9 9 10 11 11 10 9 10 10 7 6 6 7 6 7 5 4
4 1 3 7 3 4 10 13 13 6 5 9 9 4 1 3 7 8 8 12 11 12 12 11 11 11 11 10 9 10 12 13 10 12 15 16 16 14 12 8 9 11 11 12 12 11 8 8 9 8 8 9 7 7 6 6 6 5 5 5 6 7 7 8 8 8 9 9 11 10 10 10 12 11 8 8 10 10 8 8 8 8 7 5 4 3 4
2 1 3 3 4 3 18 20 9 1 5 2 5 7 6 6 11 13 11 10 9 12 15 13 14 14 13 13 12 12 11 13 13 12 13 14 14 13 13 13 10 11 11 11 12 10 8 9 7 8 10 10 8 7 7 7 7 7 7 7 7 8 8 8 8 9 10 12 12 9 9 9 10 9 8 8 8 9 10 9 8 8 7 6 6 7 6
0 2 1 2 5 12 16 12 5 2 6 7 5 6 10 7 9 11 10 9 9 9 12 13 14 13 13 11 10 12 12 12 12 12 11 11 12 13 14 14 14 16 14 12 11 9 8 8 7 6 7 7 6 5 6 6 7 7 7 7 8 8 8 8 9 10 11 12 10 9 10 10 9 10 10 10 9 8 9 8 7 7 6 7 6 6 7
2 4 2 4 8 10 11 10 7 9 9 6 7 5 8 10 8 6 9 9 8 8 9 10 10 12 11 12 11 12 10 11 12 12 11 11 11 10 11 12 11 13 13 13 11 8 6 6 5 5 6 8 8 7 5 6 7 8 8 8 8 8 8 9 9 10 10 9 8 9 9 10 10 12 13 12 11 10 8 7 7 7 8 6 9 9 7
4 5 3 8 5 9 12 10 9 7 9 6 5 7 8 7 7 6 7 7 6 6 6 10 10 10 10 11 11 11 11 10 10 9 10 10 10 11 10 8 8 11 12 12 12 11 7 6 5 4 5 8 10 8 9 8 8 8 8 9 8 8 8 9 10 10 11 10 9 9 10 9 10 10 12 13 12 9 7 7 8 7 6 8 7 6 6
6 4 2 2 5 7 10 8 7 8 9 9 8 8 8 8 8 9 10 9 10 9 9 11 10 10 10 11 10 9 9 10 10 10 10 10 10 10 9 6 4 6 9 8 7 9 9 6 6 6 7 5 6 8 9 9 9 9 9 9 9 9 9 10 10 10 11 9 9 9 9 8 9 9 9 8 8 7 7 8 7 6 6 7 7 6 5
5 8 8 6 4 5 5 6 4 6 9 11 10 8 8 8 9 9 8 10 11 9 10 8 10 10 9 10 9 10 9 8 8 8 8 8 9 9 8 6 6 6 5 7 7 7 7 7 7 7 8 8 9 10 10 9 9 8 8 9 10 11 12 11 10 10 10 11 9 8 9 8 8 6 5 5 6 7 8 7 6 5 6 6 5 5 5
6 10 6 7 6 4 5 4 3 2 4 9 10 9 10 11 13 13 13 13 10 10 9 7 8 11 9 9 10 10 8 9 9 9 8 8 7 6 7 6 5 3 3 3 4 3 4 3 2 2 1 4 6 8 8 7 7 8 8 10 10 11 11 10 9 9 9 9 6 7 7 6 5 4 1 3 3 2 4 4 2 3 5 5 5 5 6
9 12 11 14 10 2 2 4 2 1 4 8 11 10 11 12 12 11 14 13 12 10 9 8 9 10 8 8 9 11 9 8 7 8 8 7 6 5 3 2 3 3 3 2 2 3 3 3 3 3 4 5 6 8 8 8 9 9 10 10 9 8 8 9 9 9 9 9 7 5 6 5 5 5 9 10 7 2 2 5 6 5 3 2 2 3 4
8 13 19 6 5 11 8 6 3 3 4 8 10 9 10 9 9 10 12 13 12 12 11 9 9 9 8 8 8 10 9 8 7 6 6 5 4 4 2 2 2 2 3 4 3 2 2 2 2 2 3 5 6 7 8 9 10 10 10 8 7 7 7 7 9 9 8 8 9 6 6 6 6 6 5 6 11 11 7 5 7 9 7 7 6 3 2
9 8 8 4 8 10 8 6 5 5 4 6 11 9 8 9 8 8 10 12 12 8 5 6 6 5 7 6 8 9 8 8 8 8 8 6 5 5 4 3 2 1 1 1 3 4 3 3 3 4 5 6 7 8 8 9 9 8 9 8 7 7 6 6 7 8 8 8 9 9 6 6 6 6 6 6 4 7 9 9 9 8 7 6 3 5 6
6 8 10 10 11 12 9 7 6 7 8 9 9 8 10 10 9 10 9 8 5 6 6 5 4 5 7 9 9 9 9 8 8 7 6 5 5 4 2 1 1 2 3 3 3 3 4 5 5 6 7 7 7 8 8 8 8 8 8 8 8 7 6 7 7 9 7 7 7 7 7 6 6 5 5 5 5 5 5 7 8 10 11 11 9 8 9
12 11 10 10 11 9 9 11 11 9 8 8 10 9 10 9 9 9 8 6 5 5 5 5 7 7 8 8 7 7 7 7 5 3 4 4 3 2 3 2 2 2 2 2 3 4 5 7 7 6 6 7 7 6 7 6 7 6 6 6 6 6 7 8 7 7 7 6 7 6 5 5 5 5 4 3 3 3 4 3 4 7 10 11 9 8 9
11 6 10 14 12 11 9 7 6 5 7 8 10 9 7 8 9 9 7 7 6 5 5 6 5 5 7 7 6 6 6 3 3 4 4 4 5 4 4 4 3 2 3 2 2 3 5 6 6 6 6 7 7 7 7 7 7 6 5 4 4 4 7 7 6 6 6 6 6 6 6 5 5 5 4 3 3 3 3 3 3 4 4 4 6 10 5
13 13 11 9 7 7 6 6 5 6 7 6 6 6 5 5 6 8 8 7 6 6 7 7 7 7 7 6 6 5 6 7 7 6 6 6 6 4 4 4 3 2 3 3 3 3 5 5 6 6 6 5 5 6 7 7 7 6 5 5 4 5 5 6 5 6 6 6 5 5 5 5 4 4 3 4 4 4 4 4 5 5 5 3 4 6 10
12 10 9 10 8 6 6 7 9 10 9 8 7 6 5 8 8 8 8 7 6 7 7 7 6 6 6 5 6 6 5 6 7 7 6 5 6 5 4 2 2 3 3 4 4 4 5 5 5 5 5 4 5 5 5 6 6 6 6 5 5 4 5 6 6 5 5 5 5 5 5 4 4 4 4 4 4 4 5 5 5 5 5 5 5 5 4
7 8 8 8 9 10 10 10 8 6 7 6 7 8 7 8 8 8 7 8 7 8 6 5 6 7 6 6 6 6 5 6 6 5 5 5 6 5 4 2 2 2 3 4 5 5 5 5 5 4 3 5 5 4 5 5 4 4 4 5 4 4 4 5 4 4 4 4 5 6 5 5 4 4 5 5 5 5 6 5 5 5 5 6 6 6 7
5 5 6 6 7 8 8 4 4 6 6 7 7 7 7 7 7 6 6 5 6 6 7 7 6 7 7 7 6 5 5 4 5 5 3 3 5 5 4 3 4 4 4 5 4 5 5 5 5 4 4 4 5 5 4 4 4 4 3 3 4 2 2 4 4 4 5 5 5 5 5 5 5 5 5 5 5 5 5 4 5 4 4 6 6 6 6
6 7 7 6 6 5 3 2 3 4 5 6 8 8 8 7 7 7 6 6 7 7 7 7 7 7 6 5 5 5 5 5 5 4 3 1 3 4 5 4 6 6 4 3 3 3 4 5 5 4 4 2 2 3 4 4 4 4 4 4 3 3 4 6 5 5 4 5 5 5 5 5 5 5 5 4 4 5 5 4 4 4 4 5 6 6 6
6 5 4 3 3 3 2 2 2 4 5 6 5 4 4 5 5 5 6 5 5 5 5 5 5 6 6 5 5 5 5 5 4 3 4 4 4 4 4 5 5 5 5 4 3 3 3 4 3 4 3 2 3 3 4 5 5 4 3 3 4 4 6 5 5 6 6 6 6 5 5 5 5 5 4 4 4 3 4 4 4 4 4 4 5 6 7
1 2 2 2 3 3 2 1 3 2 3 3 3 3 4 5 6 5 5 5 5 5 5 6 6 6 6 5 5 5 5 5 4 4 6 6 6 5 4 4 4 4 2 2 2 2 2 2 3 4 3 2 2 2 2 3 3 4 3 4 5 5 5 6 7 7 7 6 5 6 5 5 4 4 4 3 3 3 3 3 3 3 2 3 4 5 7
4 4 4 3 2 2 2 1 1 1 2 4 5 6 5 5 5 5 5 4 4 5 5 5 5 5 5 5 5 4 4 4 4 5 6 6 6 5 4 3 3 3 4 4 3 2 2 3 5 7 7 7 6 5 4 5 6 7 4 5 7 6 6 5 5 6 6 6 5 5 4 4 3 3 3 2 2 2 2 1 2 2 2 3 3 4 6
3 3 3 2 2 1 1 1 1 2 3 4 4 4 4 3 3 2 2 2 3 4 4 5 5 4 5 5 4 4 4 4 5 4 4 3 3 2 3 4 4 4 5 6 5 4 4 6 10 11 7 7 6 6 6 7 8 7 6 7 7 7 7 6 6 6 5 4 4 4 4 4 4 3 2 2 1 1 1 2 2 2 2 2 3 4 4
3 3 3 3 3 3 3 2 2 3 3 4 3 4 4 4 4 2 1 2 2 2 4 5 5 6 6 5 4 3 3 4 3 3 2 1 2 3 4 4 4 5 5 6 6 6 7 8 13 15 10 8 7 7 9 11 8 8 7 7 7 6 6 5 4 5 4 4 4 5 5 4 3 3 2 2 2 1 2 2 2 2 2 3 4 4 5
4 4 4 3 3 3 3 3 2 3 3 4 3 3 3 3 3 3 3 3 4 5 7 6 6 5 5 5 4 4 4 3 3 3 3 3 4 6 7 6 5 4 6 6 5 5 6 7 8 7 6 5 6 7 9 12 7 5 6 6 6 6 6 6 5 4 3 4 5 4 4 3 3 2 2 2 2 2 2 2 2 2 3 3 4 4 5
5 3 4 3 3 3 3 3 4 4 4 5 4 4 4 4 4 4 4 5 5 6 7 6 5 6 7 7 6 6 5 5 4 4 5 5 4 6 6 5 3 3 4 4 2 3 2 3 5 6 7 7 8 8 9 10 8 5 5 6 8 7 6 5 5 4 4 4 4 4 3 3 2 2 2 2 2 2 2 2 2 2 3 3 3 3 4
4 4 4 3 4 3 4 4 5 5 4 4 5 5 5 5 5 5 5 5 5 6 6 5 6 6 7 7 7 6 5 4 4 4 4 3 3 5 6 6 5 2 2 2 2 1 3 6 6 6 6 7 7 5 5 7 6 5 6 6 6 6 5 5 5 5 5 4 4 4 3 3 3 2 2 1 2 2 1 3 3 2 2 2 2 2 2
2 3 3 4 5 5 6 5 5 5 5 5 5 4 4 4 4 4 5 5 5 4 5 7 8 7 7 6 6 6 5 3 4 4 4 3 4 4 4 4 3 2 2 2 3 5 4 3 4 4 4 3 4 5 5 7 6 5 6 6 6 6 5 5 5 5 5 4 4 4 3 3 3 3 2 2 1 1 1 1 1 1 1 2 2 2 2
4 4 5 5 5 5 5 4 3 4 4 3 4 4 3 3 3 3 4 4 4 3 4 5 7 7 6 6 5 6 6 5 4 4 5 5 6 5 6 5 4 4 6 5 5 4 3 3 3 4 4 4 5 7 7 5 5 5 5 5 5 5 5 5 5 4 4 3 3 3 3 3 2 2 2 1 1 1 1 2 2 3 3 3 3 3 3
5 5 5 5 5 5 5 4 4 3 3 4 4 4 4 3 3 3 3 4 4 4 5 5 6 6 5 4 3 4 4 3 3 3 4 4 4 4 6 5 4 4 5 3 2 2 2 3 3 3 4 4 6 9 7 5 5 5 5 5 5 5 4 4 4 4 4 4 3 3 3 2 2 1 1 1 0 0 1 2 3 4 5 5 5 4 4
4 4 4 4 5 4 3 3 4 4 5 5 5 4 4 4 4 5 5 5 5 5 5 5 6 6 6 6 5 4 4 4 4 3 4 4 4 4 3 3 3 4 5 2 1 1 2 2 3 6 7 9 10 7 4 4 4 4 4 4 4 4 4 4 4 4 3 3 3 3 3 2 2 1 1 0 0 1 1 2 3 3 4 5 5 6 6
4 3 4 4 3 3 4 4 5 5 4 3 3 4 5 5 5 4 4 4 4 5 5 5 5 5 5 5 4 4 2 1 2 3 3 4 5 4 2 1 1 1 3 2 1 1 2 2 5 7 7 8 8 6 3 3 3 3 3 3 3 3 3 3 3 3 3 3 3 2 2 2 2 1 1 1 1 2 2 2 3 4 5 5 5 6 6
3 3 3 3 5 4 3 3 2 2 2 3 4 5 5 5 5 4 3 4 4 4 3 3 4 4 4 4 4 3 2 2 3 2 2 3 4 3 3 2 1 1 2 2 1 2 2 3 4 4 5 7 7 4 2 2 2 2 3 3 3 3 3 3 3 3 3 3 2 2 2 2 1 1 0 1 1 2 2 2 4 4 4 5 5 5 6
3 2 3 2 2 2 2 2 2 2 4 6 6 6 5 5 4 3 3 3 3 4 4 4 4 4 3 3 4 5 6 5 4 4 3 3 2 2 3 2 1 1 2 2 1 2 3 4 5 3 6 8 7 3 3 3 3 3 3 3 3 3 3 3 3 3 3 2 2 1 1 1 2 2 1 2 2 2 3 3 4 5 5 5 5 5 6
4 3 2 2 1 1 2 2 2 4 4 3 3 3 4 4 4 4 4 4 4 4 4 4 4 4 4 3 1 1 2 3 5 3 3 3 3 3 2 2 1 1 3 2 2 1 2 5 5 6 8 9 5 4 3 3 3 3 3 3 3 3 3 3 3 2 2 1 2 3 3 3 4 3 3 3 3 3 3 4 4 5 5 5 5 4 5
3 2 1 1 1 0 1 2 2 3 3 3 3 3 4 5 4 3 4 5 5 5 4 4 4 4 3 2 2 2 1 1 2 3 3 3 3 3 2 0 2 4 4 3 3 3 6 7 6 7 8 9 5 4 4 4 4 4 3 3 3 3 3 3 3 2 2 2 3 3 4 4 4 4 4 4 4 4 4 4 4 4 5 5 5 4 4
3 2 1 1 1 1 1 2 2 3 3 3 3 3 3 3 4 5 4 4 4 4 4 3 3 2 2 2 1 1 1 2 3 3 3 3 2 2 2 2 2 3 5 4 3 3 6 9 7 6 7 7 6 5 4 4 4 4 4 4 4 4 4 4 2 3 3 4 4 4 4 5 4 4 4 5 5 5 5 4 5 3 3 4 4 4 4
3 2 1 1 1 1 0 1 1 2 2 3 3 3 2 3 3 3 3 4 4 5 5 5 4 3 3 3 3 2 1 2 2 3 3 3 3 3 3 2 3 4 4 5 4 4 3 5 6 7 8 7 6 5 5 5 5 5 5 6 6 6 5 5 6 5 6 6 5 6 5 5 5 5 5 5 5 5 5 5 5 5 5 4 4 4 4
2 1 2 1 1 1 1 1 1 0 1 1 2 3 3 3 3 4 3 3 3 4 4 5 6 4 3 4 4 4 4 4 5 4 3 4 3 3 3 5 4 4 5 5 5 5 4 4 5 6 6 7 6 6 6 5 5 6 6 6 6 6 6 6 6 7 6 7 7 6 6 6 6 6 6 6 6 5 5 5 5 5 5 5 5 4 4
Wind_Direction
216 222 225 198 192 216 208 212 210 202 194 195 209 216 216 154 209 231 184 171 211 216 212 208 216 211 212 219 220 217 219 179 177 185 190 193 195 187 189 194 194 185 183 185 187 188 193 194 197 199 202 204 204 206 208 209 211 213 210 203 199 193 176 160 161 172 176 188 194 200 163 147 183 183 162 164 176 180 188 186 187 173 160 167 192 211 208
213 221 224 202 199 206 214 212 210 203 197 201 206 212 213 202 224 233 210 184 209 212 215 217 219 214 213 217 149 86 194 208 199 197 197 197 192 192 196 197 196 189 187 180 181 185 187 192 195 196 199 200 202 205 208 209 210 213 208 200 188 194 186 174 173 170 174 184 194 201 182 165 166 163 187 196 191 195 194 192 188 180 172 181 184 201 198
232 231 228 217 209 214 220 214 204 205 209 204 200 207 206 200 217 217 211 196 217 216 220 221 227 358 26 55 208 214 210 196 187 193 195 195 197 200 203 200 186 180 180 179 179 187 192 194 195 196 198 199 201 208 210 210 209 206 206 199 195 194 190 181 169 168 178 189 195 201 180 175 150 151 197 218 207 199 192 190 187 178 167 172 167 197 210
238 231 225 218 214 220 229 229 215 195 196 208 214 226 154 190 204 205 154 219 226 226 220 241 233 204 199 215 215 212 206 198 193 196 197 194 198 202 205 193 180 178 182 180 185 191 194 194 194 194 190 188 190 202 203 207 210 206 208 208 204 200 197 168 162 176 186 190 196 197 145 144 152 181 196 207 212 203 192 189 181 163 167 166 162 181 206
257 240 211 222 210 212 233 233 231 207 195 197 196 209 190 196 194 201 207 229 215 221 176 214 228 215 221 228 225 219 210 197 200 202 199 197 197 206 193 177 182 186 187 187 188 189 191 192 190 191 180 178 183 191 204 208 205 204 203 203 202 198 192 169 170 178 183 186 174 104 107 143 187 197 196 199 205 200 195 173 145 159 166 132 131 122 131
279 283 202 155 167 220 226 219 218 209 202 201 206 205 205 213 199 204 205 216 215 186 168 204 221 218 227 264 292 300 221 194 210 225 230 223 219 197 188 186 186 187 180 181 183 181 175 174 177 167 174 192 200 201 200 191 193 200 198 201 200 195 179 171 173 174 175 167 152 159 168 178 185 194 203 208 207 189 152 125 104 107 119 100 101 159 206
285 74 125 195 223 227 208 125 357 217 213 202 209 193 184 196 220 262 260 243 234 206 205 214 222 165 152 186 282 252 222 206 207 217 223 233 233 206 189 183 194 184 173 156 152 159 172 169 173 188 193 198 188 185 186 188 189 185 188 190 195 191 183 176 166 169 173 174 172 175 175 182 189 191 200 203 167 131 140 134 133 126 121 123 179 191 208
192 246 205 241 241 276 62 61 106 78 231 222 153 138 178 214 227 231 236 234 216 162 221 231 237 203 138 127 113 330 297 258 226 202 211 208 196 201 193 190 194 165 170 168 168 165 166 177 181 185 190 188 187 191 188 188 186 188 187 193 198 192 184 174 171 173 177 180 180 181 182 186 190 195 196 183 150 138 128 115 97 102 130 173 203 198 200
271 298 247 263 358 279 207 181 164 155 173 171 182 204 196 172 195 204 233 262 258 228 206 199 190 180 155 142 121 43 340 302 265 244 221 196 191 185 179 180 175 172 175 171 172 161 167 175 175 185 179 177 181 177 180 183 177 183 188 194 198 192 190 179 174 175 179 180 182 186 186 190 198 197 191 169 166 152 142 139 145 174 199 187 182 199 201
234 277 289 258 235 243 197 138 109 327 328 310 322 241 162 183 189 217 229 238 234 215 173 167 168 181 174 195 167 8 346 323 276 249 291 211 167 158 155 153 152 161 162 149 133 155 157 159 152 156 158 164 167 171 176 171 171 179 187 196 195 191 191 179 172 173 179 180 183 189 191 195 203 197 177 168 164 151 140 152 177 199 200 188 179 182 193
188 223 258 250 245 239 48 84 352 24 330 298 253 208 207 137 251 209 225 232 223 208 167 147 151 170 187 175 18 357 344 342 12 114 95 99 100 99 108 125 130 134 123 115 117 98 104 113 113 143 159 162 164 166 162 164 172 179 190 192 187 191 188 175 168 170 176 180 186 194 208 200 95 94 107 119 123 137 156 182 194 188 182 190 190 182 194
127 299 255 253 246 271 352 338 329 326 345 208 190 204 195 98 1 290 229 209 177 163 145 146 151 169 157 144 72 12 24 37 54 84 94 90 89 86 87 92 105 111 115 107 99 96 94 99 128 140 144 148 141 136 136 151 167 176 176 174 171 174 166 157 162 164 172 178 190 193 145 130 140 140 146 154 163 164 170 180 171 153 147 158 190 201 200
83 152 277 276 247 190 6 338 326 319 248 222 188 203 115 46 36 355 194 137 131 138 135 128 107 43 68 98 98 87 88 85 76 75 78 78 81 88 93 99 105 100 95 94 95 95 100 120 129 134 134 124 115 114 123 133 144 153 148 147 155 157 153 158 161 166 165 183 181 168 137 137 135 143 154 162 161 156 163 166 162 171 179 187 198 187 157
278 28 284 266 320 56 353 342 325 295 179 180 203 80 225 91 87 66 88 94 90 91 84 95 96 102 98 100 105 101 93 89 87 90 95 97 93 87 84 83 88 91 90 94 96 95 103 115 121 123 115 100 102 113 127 135 132 123 134 150 154 154 154 159 162 163 168 174 168 155 131 138 145 155 164 163 162 155 152 159 168 182 184 185 180 156 181
177 113 295 258 231 91 352 337 311 171 277 31 84 112 84 85 87 86 73 80 88 97 100 98 105 107 105 105 102 96 90 85 83 81 79 83 90 95 95 85 81 89 78 67 66 72 77 85 92 104 106 107 114 126 135 137 137 142 150 153 154 154 154 151 153 166 165 164 161 146 139 144 149 152 160 165 159 156 160 173 184 188 184 167 179 197 192
238 52 301 311 355 318 328 327 287 47 86 127 106 106 103 81 91 91 91 66 64 78 99 108 105 105 105 90 86 84 81 84 81 78 78 80 82 83 84 88 87 84 82 73 66 55 61 70 78 84 99 104 117 120 127 132 141 144 148 153 153 148 146 154 162 165 166 165 153 142 141 144 149 154 160 165 166 169 174 184 192 198 190 187 189 207 209
275 173 206 325 332 329 333 3 39 86 79 84 94 77 99 106 92 92 91 95 81 76 86 91 92 88 77 81 73 72 59 58 63 69 67 68 75 83 87 90 94 96 106 109 105 98 90 99 105 114 124 125 128 133 138 143 148 154 154 152 147 146 155 159 162 162 164 154 138 135 138 147 153 169 168 171 178 182 180 190 196 200 204 188 207 206 196
117 72 127 279 314 344 347 9 16 51 86 64 73 85 81 54 58 43 75 63 50 53 53 75 61 69 81 78 73 70 68 65 58 56 59 61 71 80 81 78 91 105 108 111 116 118 117 126 125 132 134 142 149 152 150 159 159 157 153 147 146 152 156 159 160 159 157 157 144 144 149 163 168 175 177 183 186 181 190 195 195 192 191 198 197 177 174
163 121 188 298 338 340 348 351 22 42 47 50 46 54 60 69 70 70 57 65 61 50 54 72 75 60 64 75 66 63 64 58 52 52 53 52 49 49 56 44 45 95 103 100 106 119 120 136 142 152 153 151 134 142 155 162 162 158 154 151 154 159 159 159 157 160 158 158 156 154 163 167 175 182 185 186 186 183 190 197 194 193 188 192 180 179 186
166 160 168 152 89 334 339 335 359 51 63 67 57 54 55 56 60 66 61 71 64 51 56 52 78 70 60 64 62 61 53 50 50 48 49 44 48 47 52 47 35 45 67 106 127 135 139 155 157 166 166 163 154 153 155 164 161 152 146 153 161 168 166 157 159 164 164 156 152 161 167 178 177 176 182 188 186 181 190 193 197 198 205 199 187 188 202
70 67 89 121 136 95 341 332 23 31 72 84 77 64 61 65 65 61 56 51 59 66 58 41 67 72 55 57 67 69 54 42 31 27 27 31 37 44 47 44 40 58 39 73 80 56 72 79 99 107 73 108 131 133 146 157 155 149 150 163 172 169 164 161 160 165 169 164 155 152 155 148 78 59 345 224 209 173 41 1 325 225 217 210 215 219 210
157 164 179 171 133 212 235 277 286 110 87 99 97 88 74 67 63 62 68 55 43 41 47 49 58 66 57 50 62 68 61 54 41 34 27 27 34 42 57 58 89 107 85 70 69 68 93 136 153 134 116 122 140 161 159 160 164 160 163 170 165 160 161 169 169 169 176 177 169 149 147 126 122 88 58 52 28 350 102 25 2 358 336 277 298 220 178
195 172 165 188 104 126 141 157 295 345 62 87 85 83 92 90 85 80 82 81 62 41 15 15 62 71 65 54 59 66 57 45 38 36 30 19 19 36 35 113 103 104 100 101 102 127 143 134 107 108 138 160 174 174 170 170 172 169 168 158 154 156 164 180 181 179 181 183 178 169 157 152 158 146 139 61 49 48 48 37 22 10 355 295 292 313 249
40 73 105 101 131 127 124 119 140 110 76 89 99 99 80 75 74 77 83 82 89 88 61 16 12 80 90 73 74 78 67 54 40 29 22 16 6 1 5 19 29 32 326 226 219 213 173 173 169 177 184 182 181 179 171 173 179 172 166 154 159 167 177 179 174 186 190 188 189 186 164 162 159 164 157 150 124 61 51 45 44 41 30 31 79 125 122
104 90 87 83 88 97 99 111 111 105 99 108 96 87 92 88 70 58 56 53 64 100 109 94 42 10 54 56 53 54 55 48 40 31 22 17 6 357 2 335 217 218 216 215 218 204 179 179 181 182 181 179 178 177 172 174 175 167 164 165 165 164 164 162 169 179 179 175 175 173 165 163 169 171 177 175 162 145 101 89 82 66 51 43 50 72 93
82 88 93 93 90 89 104 93 58 55 72 85 103 102 92 95 107 101 97 90 63 26 50 57 61 42 47 55 55 60 66 60 50 27 35 29 17 358 346 336 307 257 229 206 201 188 180 182 180 181 182 178 173 169 165 164 167 168 165 169 169 164 163 161 161 164 174 174 174 171 157 164 170 177 186 183 181 154 144 147 114 78 68 52 47 68 66
44 26 115 94 70 57 30 54 97 56 67 73 86 90 99 113 114 111 113 111 111 101 79 63 57 53 50 42 50 56 64 74 64 41 30 23 19 1 333 317 318 301 267 246 218 192 180 180 184 184 183 177 169 164 162 160 157 155 156 151 142 119 140 153 162 163 170 171 173 166 161 166 171 183 180 176 173 174 192 183 166 148 148 99 47 27 78
52 34 30 65 68 56 40 29 54 67 57 53 62 84 102 120 105 98 90 82 76 76 70 54 48 44 50 32 28 29 33 36 36 27 19 10 355 346 336 323 300 288 267 248 241 199 195 196 196 195 186 172 161 163 160 156 153 146 143 143 145 160 165 163 161 168 169 169 168 165 165 174 176 174 177 186 195 196 186 179 171 158 151 115 92 56 60
36 25 38 63 60 50 43 27 23 31 31 26 36 33 46 66 60 59 58 49 42 46 40 28 36 45 39 30 25 20 14 12 13 10 2 343 334 335 328 294 272 266 263 251 235 210 204 201 200 200 189 160 161 161 160 158 161 156 151 153 164 174 177 180 186 179 168 160 166 169 170 165 172 183 196 197 199 192 188 188 179 169 149 139 129 110 93
30 26 35 43 48 39 34 35 1 3 30 12 33 35 26 56 63 49 36 28 27 42 27 13 20 23 17 19 20 10 2 351 336 330 339 340 334 331 322 302 243 249 248 247 236 217 211 202 199 192 170 159 166 158 160 162 169 159 156 167 181 191 199 188 174 167 156 163 160 147 168 175 181 188 191 192 194 193 191 192 187 168 154 158 160 160 167
50 34 37 38 46 55 67 43 12 16 18 21 25 46 43 52 60 56 40 31 29 30 20 18 16 8 11 4 352 343 334 322 314 310 329 349 332 327 315 256 229 229 230 240 232 219 213 205 191 173 126 141 165 173 183 176 177 170 181 187 205 159 111 132 160 170 170 166 155 172 174 179 180 180 182 183 179 184 185 184 179 186 170 164 177 174 163
83 52 29 17 24 32 48 49 31 39 38 30 36 35 24 29 33 31 27 24 22 14 7 10 7 360 348 342 334 329 325 323 315 318 333 346 347 328 314 284 257 263 279 300 286 240 220 205 191 165 135 158 153 185 198 200 197 195 193 183 170 144 156 156 165 156 151 143 149 161 165 169 170 171 164 172 172 175 178 180 186 189 184 177 175 168 163
85 76 39 5 359 332 331 351 2 48 48 49 39 22 24 24 25 25 27 14 11 11 4 357 349 342 334 331 333 333 330 319 302 300 329 337 349 337 315 304 286 265 261 278 298 278 238 214 181 130 145 181 199 189 189 184 186 184 159 156 138 128 132 153 138 140 142 148 156 159 158 163 156 164 163 162 160 168 176 188 191 188 183 179 172 163 156
345 22 50 47 355 347 349 19 7 37 77 94 84 65 50 37 28 24 20 10 10 8 3 352 344 340 335 338 337 338 337 337 343 341 341 341 348 348 335 312 316 316 313 323 289 271 239 155 108 104 108 120 124 123 160 140 99 78 125 136 122 125 137 144 153 149 139 136 133 133 134 135 144 147 145 149 149 155 161 187 183 187 192 203 193 184 162
53 57 42 34 23 4 4 353 25 38 50 63 59 50 39 32 27 25 15 13 19 15 6 1 356 345 348 350 348 344 344 334 324 322 329 335 334 334 337 346 18 51 58 52 52 38 53 89 107 101 94 87 83 85 101 111 120 116 124 106 104 121 132 121 114 106 108 114 120 122 118 121 117 109 121 147 179 174 199 207 209 199 204 191 180 172 152
75 101 113 110 106 101 92 42 50 51 58 60 61 60 56 47 36 30 24 23 34 30 24 20 21 17 14 2 354 350 346 338 327 322 328 338 344 345 9 32 41 62 76 72 66 83 103 105 108 108 107 110 115 118 115 116 103 103 116 113 114 104 94 87 91 89 85 90 92 88 91 98 100 108 114 119 127 164 204 176 185 207 209 182 171 161 149
72 90 95 94 89 85 84 67 58 66 68 58 51 53 49 37 29 11 350 34 32 6 15 20 30 29 22 3 338 330 331 333 328 332 332 2 71 72 65 69 71 90 97 81 69 84 104 121 127 123 121 120 117 115 116 117 120 124 124 118 114 111 104 91 81 81 80 92 103 109 114 117 115 111 116 121 135 171 198 213 184 194 162 162 161 172 165
55 62 66 65 70 76 72 65 62 73 87 92 79 62 42 30 19 6 3 8 9 8 19 27 30 24 26 21 22 21 18 24 23 41 46 64 84 83 71 66 71 94 96 76 71 91 105 105 92 83 88 92 108 120 126 121 122 122 109 101 92 87 86 83 75 83 116 119 123 120 119 108 110 118 122 135 145 152 166 186 186 199 196 195 182 176 180
77 81 77 75 73 72 78 78 65 55 45 44 41 43 28 16 4 353 5 13 9 8 23 30 30 35 34 37 40 40 42 47 44 46 66 82 78 75 71 65 49 47 80 80 64 103 127 88 79 94 103 107 104 99 105 114 124 126 121 106 101 94 100 114 130 138 128 117 109 101 103 106 117 130 147 158 160 167 186 223 233 201 206 195 186 185 188
62 64 64 75 76 65 62 56 52 46 39 29 27 21 9 4 7 355 355 6 8 10 26 24 37 42 39 41 45 42 31 25 5 40 54 47 65 93 97 72 56 88 139 155 166 161 106 99 92 105 107 109 111 109 97 99 86 65 77 89 101 117 129 135 140 134 124 122 121 132 135 141 137 132 132 153 167 188 198 174 192 198 207 194 214 210 212
64 61 63 61 59 54 47 43 45 39 35 23 21 18 11 3 349 350 2 355 350 357 17 29 37 45 46 49 51 58 56 28 9 9 349 354 45 55 61 58 52 98 126 124 122 132 110 91 110 121 122 119 115 118 120 115 115 120 117 126 135 130 131 132 135 136 147 153 157 160 150 148 145 164 162 176 183 199 186 213 225 232 243 243 231 229 230
50 55 57 56 49 45 43 40 39 47 42 29 19 10 15 3 350 351 342 341 350 352 358 16 27 40 51 59 65 64 57 49 34 31 30 35 48 63 82 76 71 91 104 110 120 125 122 111 91 99 109 109 105 110 113 120 112 108 109 110 118 130 136 144 151 155 156 164 165 166 164 177 184 180 169 197 214 236 264 275 274 263 258 252 251 249 246
35 45 48 51 47 41 37 36 37 32 42 40 25 16 5 357 356 351 353 2 4 4 5 10 10 20 27 34 51 66 62 47 53 58 76 59 48 40 74 92 96 97 99 71 52 83 82 85 99 93 87 94 112 115 107 106 108 113 115 124 127 138 147 151 151 157 166 170 173 176 175 187 192 186 177 184 327 345 328 311 296 292 281 271 264 253 246
22 39 43 45 45 37 35 34 32 29 30 19 5 354 2 10 10 4 5 4 6 9 5 4 7 15 14 14 17 30 30 24 34 45 82 100 96 81 72 93 103 125 138 128 123 99 105 101 108 115 121 124 126 122 115 119 123 123 127 132 139 146 148 155 158 167 168 167 171 165 162 158 172 138 131 91 3 19 3 333 322 312 306 294 281 269 257
16 26 27 33 34 29 29 24 23 20 5 332 338 9 17 13 8 5 357 357 360 360 359 359 359 5 9 12 19 16 11 350 357 347 27 55 71 70 48 18 129 124 119 127 108 133 141 138 126 145 145 138 136 132 134 129 131 136 138 145 155 157 157 159 160 156 155 158 155 157 158 160 136 116 81 55 23 324 321 329 326 319 307 299 288 273 259
8 24 21 27 38 31 15 357 344 326 341 359 22 32 20 8 359 354 350 345 339 348 344 336 340 354 358 354 0 356 19 50 61 53 33 15 24 14 19 329 331 335 116 159 177 181 169 144 148 185 151 151 148 150 156 151 154 151 162 162 162 162 166 160 162 168 168 177 168 169 164 157 156 178 337 315 332 306 324 326 309 305 306 300 298 288 277
343 11 39 37 40 21 360 350 325 338 6 15 18 3 354 353 345 337 340 334 328 327 329 337 350 357 4 0 1 3 7 16 55 59 40 46 28 342 349 336 295 258 221 232 217 211 170 171 191 209 178 177 177 185 179 183 183 176 172 176 170 175 178 175 181 183 188 188 179 178 173 238 247 243 233 243 261 280 298 306 311 315 308 302 293 283 270
345 355 16 358 348 345 334 333 360 17 17 15 342 323 337 336 337 337 333 339 340 340 343 356 353 356 356 357 4 360 356 354 358 39 49 25 21 17 6 13 19 239 234 244 241 244 171 195 186 193 189 181 187 198 194 196 187 188 181 178 189 190 193 199 204 209 211 206 205 227 228 226 228 238 247 262 274 277 285 298 310 316 313 306 299 295 292
348 337 328 283 286 292 347 357 359 359 6 355 339 344 341 329 322 343 352 349 348 349 356 358 354 354 349 348 331 353 4 267 300 336 348 346 343 344 360 45 215 216 222 234 220 217 187 207 212 203 201 200 203 200 205 203 201 199 200 204 209 210 214 219 224 225 236 241 238 239 244 248 250 246 248 251 258 264 272 286 294 304 322 323 309 293 279
332 332 18 31 26 19 13 351 3 6 341 339 348 338 328 322 341 354 350 351 344 329 334 344 346 344 328 331 320 318 283 259 257 267 277 282 282 274 262 265 246 222 228 240 225 219 175 190 208 207 211 216 209 203 205 210 207 209 214 212 220 226 221 224 205 205 234 234 238 237 236 242 249 244 250 257 257 263 271 277 284 282 211 251 291 303 300
341 354 16 3 339 345 265 269 327 330 336 341 333 330 320 327 325 312 329 346 341 349 346 340 326 341 342 333 321 318 296 279 258 244 258 255 238 247 247 249 224 222 217 224 230 233 219 207 209 204 211 224 222 210 210 209 218 214 216 227 222 230 223 209 224 222 221 224 228 230 236 239 239 237 241 248 249 253 259 263 270 281 286 303 305 310 314
312 324 322 317 324 324 310 44 60 26 330 322 327 327 330 329 322 329 340 22 0 348 343 335 329 336 337 329 335 338 343 330 320 307 273 267 257 258 214 220 236 216 217 226 228 224 229 221 210 210 217 225 229 224 205 197 215 229 224 221 225 225 224 223 220 225 227 220 227 233 228 232 236 234 237 241 244 249 251 257 265 270 272 277 286 292 297